Date,TemperatureHighF,TemperatureAvgF,TemperatureLowF,DewpointHighF,DewpointAvgF,DewpointLowF,HumidityHigh,HumidityAvg,HumidityLow,PressureMaxIn,PressureMinIn,WindSpeedMaxMPH,WindSpeedAvgMPH,GustSpeedMaxMPH,PrecipitationSumIn
2013-11-1,80,62,46,48,37,29,71,44,20,29.06,28.79,4,1,8,0.00
2013-11-2,73,60,47,37,32,27,51,36,22,29.26,29.06,3,1,6,0.00
2013-11-3,68,55,40,43,32,26,63,44,28,29.18,28.94,3,1,6,0.00
2013-11-4,63,61,58,60,53,44,90,75,56,29.03,28.94,2,0,6,0.10
2013-11-5,76,69,63,66,63,60,94,81,60,28.97,28.85,2,1,5,0.00
2013-11-6,70,58,46,65,49,35,92,73,43,29.29,28.94,4,1,6,0.41
2013-11-7,64,52,39,37,33,29,73,50,29,29.41,29.29,3,1,8,0.00
2013-11-8,64,55,47,41,36,32,71,51,33,29.32,29.12,2,0,5,0.00
2013-11-9,67,60,54,50,45,37,67,56,50,29.15,29.06,2,0,6,0.00
2013-11-10,69,62,54,53,49,44,77,64,49,29.26,29.12,2,0,4,0.00
2013-11-11,73,60,46,51,45,39,80,60,40,29.23,29.12,2,0,4,0.00
2013-11-12,57,51,39,52,36,16,84,58,36,29.56,29.21,4,1,8,0.00
2013-11-13,55,42,31,25,19,15,52,40,28,29.59,29.32,2,1,5,0.00
2013-11-14,61,47,30,39,26,15,60,45,28,29.32,29.00,3,1,6,0.00
2013-11-15,76,63,49,52,47,39,77,57,38,29.00,28.82,3,1,6,0.00
2013-11-16,78,70,62,65,59,52,79,68,49,28.85,28.70,4,2,8,0.00
2013-11-17,88,74,58,68,56,42,89,58,26,28.94,28.73,3,1,6,0.00
2013-11-18,73,64,56,45,41,36,62,44,35,29.09,28.91,2,1,4,0.00
2013-11-19,70,61,53,39,36,33,49,39,29,29.12,28.94,3,1,6,0.00
2013-11-20,71,63,57,58,46,37,80,55,45,28.97,28.85,2,1,5,0.00
2013-11-21,78,71,64,68,64,58,92,79,62,29.03,28.88,3,0,6,0.43
2013-11-22,70,39,34,65,34,29,90,85,71,29.32,29.03,5,2,8,1.40
2013-11-23,40,37,34,38,34,31,94,89,74,29.41,29.29,3,2,6,0.20
2013-11-24,40,36,33,32,27,21,80,68,51,29.41,29.26,3,1,9,0.11
2013-11-25,38,36,33,34,32,28,88,84,79,29.29,29.06,3,1,5,0.41
2013-11-26,52,41,36,31,27,20,79,59,36,29.29,29.09,6,3,10,0.00
2013-11-27,51,39,30,21,18,14,56,43,28,29.41,29.29,3,1,6,0.00
2013-11-28,54,39,30,28,21,15,65,49,31,29.38,29.26,2,0,4,0.00
2013-11-29,61,46,29,40,31,16,72,56,42,29.44,29.29,2,0,4,0.00
2013-11-30,63,55,49,48,42,37,80,63,54,29.32,29.15,2,0,4,0.00